When you browse on this site, cookies collect data to enhance your experience and personalize the content and advertising you see.
Visit our Privacy Policy to learn more. By continuing to use the site, you agree to this use of cookies and data.
  • în România
  • Lista ţărilor
  • Pe 7 zile
  • Temperatura apei
  • Hartă satelitară
  • Meteo pe hartă
  • Widget-uri
  • user-avatar
    Intrare

    Meteo pe oră la Koluszki

    Astăzi, 26 Martie, Marţi

    Timp Temperatura Precipitaţii Vânt Presiune Umiditate
    00:00 +1°C° 0 mm 3 m/s 745 mmHg 87%
    01:00 +1°C° 0 mm 2 m/s 745 mmHg 91%
    02:00 +1°C° 0 mm 2 m/s 746 mmHg 92%
    03:00 -1°C° 0 mm 3 m/s 746 mmHg 93%
    04:00 -1°C° 0 mm 3 m/s 746 mmHg 94%
    05:00 -1°C° 0 mm 3 m/s 746 mmHg 92%
    06:00 -1°C° 0 mm 4 m/s 746 mmHg 89%
    07:00 -1°C° 0 mm 4 m/s 747 mmHg 85%
    08:00 +1°C° 0 mm 5 m/s 746 mmHg 78%
    09:00 +2°C° 0 mm 7 m/s 746 mmHg 71%
    10:00 +4°C° 0 mm 8 m/s 745 mmHg 63%
    11:00 +4°C° 0.1 mm 8 m/s 745 mmHg 63%
    12:00 +3°C° 0.1 mm 9 m/s 745 mmHg 63%
    13:00 +3°C° 0.1 mm 10 m/s 744 mmHg 63%
    14:00 +3°C° 0.3 mm 10 m/s 744 mmHg 64%
    15:00 +2°C° 0.3 mm 10 m/s 744 mmHg 66%
    16:00 +2°C° 0.3 mm 10 m/s 744 mmHg 67%
    17:00 +1°C° 0.5 mm 9 m/s 744 mmHg 69%
    18:00 0°C° 0.5 mm 7 m/s 745 mmHg 70%
    19:00 +1°C° 0.5 mm 6 m/s 745 mmHg 71%
    20:00 0°C° 0 mm 5 m/s 746 mmHg 71%
    21:00 -1°C° 0 mm 5 m/s 747 mmHg 72%
    22:00 -2°C° 0 mm 4 m/s 747 mmHg 72%
    23:00 -3°C° 0 mm 4 m/s 748 mmHg 73%

    Mâine, 27 Martie, Miercuri

    Timp Temperatura Precipitaţii Vânt Presiune Umiditate
    00:00 -3°C° 0 mm 4 m/s 749 mmHg 75%
    01:00 -3°C° 0 mm 4 m/s 749 mmHg 77%
    02:00 -3°C° 0 mm 4 m/s 750 mmHg 79%
    03:00 -2°C° 0 mm 3 m/s 750 mmHg 81%
    04:00 -4°C° 0 mm 3 m/s 750 mmHg 84%
    05:00 -2°C° 0 mm 3 m/s 751 mmHg 81%
    06:00 -2°C° 0 mm 3 m/s 751 mmHg 79%
    07:00 -1°C° 0 mm 3 m/s 752 mmHg 77%
    08:00 +1°C° 0 mm 3 m/s 752 mmHg 68%
    09:00 +2°C° 0 mm 3 m/s 752 mmHg 60%
    10:00 +4°C° 0 mm 4 m/s 753 mmHg 51%
    11:00 +5°C° 0 mm 4 m/s 753 mmHg 47%
    12:00 +6°C° 0 mm 4 m/s 752 mmHg 44%
    13:00 +7°C° 0 mm 4 m/s 752 mmHg 40%
    14:00 +7°C° 0 mm 4 m/s 752 mmHg 42%
    15:00 +7°C° 0 mm 4 m/s 752 mmHg 44%
    16:00 +7°C° 0 mm 4 m/s 752 mmHg 45%
    17:00 +6°C° 0 mm 4 m/s 752 mmHg 53%
    18:00 +7°C° 0 mm 3 m/s 752 mmHg 61%
    19:00 +5°C° 0 mm 3 m/s 752 mmHg 69%
    20:00 +5°C° 0.1 mm 3 m/s 752 mmHg 75%
    21:00 +5°C° 0.1 mm 3 m/s 752 mmHg 82%
    22:00 +5°C° 0.1 mm 3 m/s 752 mmHg 88%
    23:00 +5°C° 0.4 mm 3 m/s 752 mmHg 89%

    Poimâine, 28 Martie, Joi

    Timp Temperatura Precipitaţii Vânt Presiune Umiditate
    00:00 +5°C° 0.4 mm 4 m/s 752 mmHg 90%
    01:00 +5°C° 0.4 mm 4 m/s 752 mmHg 91%
    02:00 +5°C° 0.2 mm 3 m/s 752 mmHg 92%
    03:00 +5°C° 0.2 mm 3 m/s 752 mmHg 94%
    04:00 +4°C° 0.2 mm 3 m/s 752 mmHg 95%
    05:00 +5°C° 0.1 mm 3 m/s 752 mmHg 95%
    06:00 +5°C° 0.1 mm 3 m/s 752 mmHg 94%
    07:00 +5°C° 0.1 mm 3 m/s 753 mmHg 94%
    08:00 +6°C° 0 mm 2 m/s 753 mmHg 89%
    09:00 +7°C° 0 mm 2 m/s 753 mmHg 85%
    10:00 +8°C° 0 mm 2 m/s 754 mmHg 80%
    11:00 +9°C° 0.1 mm 2 m/s 754 mmHg 73%
    12:00 +10°C° 0.1 mm 2 m/s 754 mmHg 67%
    13:00 +12°C° 0.1 mm 2 m/s 755 mmHg 60%
    14:00 +12°C° 0.1 mm 2 m/s 755 mmHg 60%
    15:00 +12°C° 0.1 mm 2 m/s 755 mmHg 61%
    16:00 +12°C° 0.1 mm 2 m/s 755 mmHg 61%
    17:00 +10°C° 0 mm 2 m/s 755 mmHg 66%
    18:00 +9°C° 0 mm 2 m/s 756 mmHg 72%
    19:00 +7°C° 0 mm 2 m/s 756 mmHg 78%
    20:00 +8°C° 0 mm 1 m/s 756 mmHg 81%
    21:00 +7°C° 0 mm 1 m/s 757 mmHg 83%
    22:00 +5°C° 0 mm 0 m/s 757 mmHg 86%
    23:00 +6°C° 0 mm 1 m/s 757 mmHg 86%

    29 Martie, Vineri

    Timp Temperatura Precipitaţii Vânt Presiune Umiditate
    00:00 +6°C° 0 mm 1 m/s 757 mmHg 87%
    01:00 +6°C° 0 mm 1 m/s 757 mmHg 88%
    02:00 +4°C° 0 mm 2 m/s 757 mmHg 89%
    03:00 +4°C° 0 mm 2 m/s 757 mmHg 90%
    04:00 +4°C° 0 mm 2 m/s 757 mmHg 91%
    05:00 +3°C° 0 mm 3 m/s 757 mmHg 89%
    06:00 +4°C° 0 mm 3 m/s 757 mmHg 87%
    07:00 +4°C° 0 mm 3 m/s 757 mmHg 85%
    08:00 +6°C° 0 mm 4 m/s 757 mmHg 80%
    09:00 +8°C° 0 mm 4 m/s 757 mmHg 74%
    10:00 +11°C° 0 mm 4 m/s 757 mmHg 68%
    11:00 +12°C° 0 mm 4 m/s 757 mmHg 65%
    12:00 +13°C° 0 mm 4 m/s 756 mmHg 63%
    13:00 +13°C° 0 mm 4 m/s 756 mmHg 61%
    14:00 +13°C° 0 mm 4 m/s 756 mmHg 61%
    15:00 +13°C° 0 mm 4 m/s 755 mmHg 62%
    16:00 +13°C° 0 mm 4 m/s 755 mmHg 63%
    17:00 +13°C° 0 mm 4 m/s 755 mmHg 67%
    18:00 +12°C° 0 mm 3 m/s 755 mmHg 70%
    19:00 +12°C° 0 mm 2 m/s 755 mmHg 74%
    20:00 +10°C° 0 mm 2 m/s 755 mmHg 78%
    21:00 +9°C° 0 mm 2 m/s 755 mmHg 82%
    22:00 +9°C° 0 mm 2 m/s 755 mmHg 86%
    23:00 +8°C° 0 mm 2 m/s 755 mmHg 87%

    30 Martie, Sâmbătă

    Timp Temperatura Precipitaţii Vânt Presiune Umiditate
    00:00 +8°C° 0 mm 2 m/s 754 mmHg 89%
    01:00 +7°C° 0 mm 2 m/s 754 mmHg 91%
    02:00 +7°C° 0 mm 2 m/s 754 mmHg 91%
    03:00 +7°C° 0 mm 2 m/s 754 mmHg 92%
    04:00 +6°C° 0 mm 2 m/s 754 mmHg 92%
    05:00 +7°C° 0 mm 2 m/s 754 mmHg 91%
    06:00 +7°C° 0 mm 2 m/s 754 mmHg 89%
    07:00 +8°C° 0 mm 2 m/s 754 mmHg 87%
    08:00 +9°C° 0 mm 2 m/s 753 mmHg 80%
    09:00 +12°C° 0 mm 2 m/s 753 mmHg 73%
    10:00 +14°C° 0 mm 2 m/s 753 mmHg 66%
    11:00 +14°C° 0 mm 3 m/s 752 mmHg 62%
    12:00 +16°C° 0 mm 3 m/s 752 mmHg 57%
    13:00 +17°C° 0 mm 3 m/s 751 mmHg 52%
    14:00 +17°C° 0 mm 3 m/s 751 mmHg 52%
    15:00 +17°C° 0 mm 3 m/s 750 mmHg 51%
    16:00 +17°C° 0 mm 3 m/s 750 mmHg 51%
    17:00 +15°C° 0 mm 2 m/s 749 mmHg 55%
    18:00 +14°C° 0 mm 2 m/s 749 mmHg 60%
    19:00 +12°C° 0 mm 1 m/s 749 mmHg 65%
    20:00 +12°C° 0 mm 1 m/s 749 mmHg 66%
    21:00 +11°C° 0 mm 1 m/s 749 mmHg 67%
    22:00 +10°C° 0 mm 2 m/s 748 mmHg 68%
    23:00 +9°C° 0 mm 2 m/s 748 mmHg 68%

    31 Martie, Duminică

    Timp Temperatura Precipitaţii Vânt Presiune Umiditate
    00:00 +9°C° 0 mm 2 m/s 748 mmHg 69%
    01:00 +9°C° 0 mm 2 m/s 747 mmHg 69%
    02:00 +8°C° 0 mm 2 m/s 747 mmHg 70%
    03:00 +8°C° 0 mm 2 m/s 747 mmHg 70%
    04:00 +7°C° 0 mm 2 m/s 746 mmHg 71%
    05:00 +8°C° 0 mm 2 m/s 746 mmHg 71%
    06:00 +8°C° 0 mm 3 m/s 746 mmHg 71%
    07:00 +8°C° 0 mm 3 m/s 746 mmHg 71%
    08:00 +10°C° 0 mm 3 m/s 746 mmHg 65%
    09:00 +12°C° 0 mm 3 m/s 746 mmHg 59%
    10:00 +14°C° 0 mm 3 m/s 746 mmHg 53%
    11:00 +14°C° 0 mm 4 m/s 746 mmHg 51%
    12:00 +15°C° 0 mm 4 m/s 746 mmHg 48%
    13:00 +16°C° 0 mm 5 m/s 746 mmHg 46%
    14:00 +13°C° 0.1 mm 5 m/s 746 mmHg 56%
    15:00 +10°C° 0.1 mm 6 m/s 746 mmHg 67%
    16:00 +8°C° 0.1 mm 7 m/s 746 mmHg 77%
    17:00 +7°C° 0 mm 6 m/s 747 mmHg 76%
    18:00 +7°C° 0 mm 5 m/s 747 mmHg 75%
    19:00 +6°C° 0 mm 5 m/s 748 mmHg 73%
    20:00 +5°C° 0 mm 5 m/s 748 mmHg 73%
    21:00 +4°C° 0 mm 4 m/s 749 mmHg 72%
    22:00 +4°C° 0 mm 4 m/s 749 mmHg 71%
    23:00 +3°C° 0 mm 4 m/s 749 mmHg 73%
    Arată mai mult